Location: *
(39.6167°S, 171.5333°W)
Time: 23:26:38
(UTC+00:00)

GENESIS II - Pass Details

Date: 13 May 2021
Orbit: 509 x 516 km, 64.5° (Epoch: 15 June)

Event Time Altitude Azimuth Distance (km) Brightness Sun altitude
Exits shadow 17:17:13 11° 212° (SSW) 1,676 6.4 -12.7°
Maximum altitude 17:20:58 88° 297° (WNW) 529 4.2 -12.0°
Drops below altitude 10° 17:24:54 10° 30° (NNE) 1,749 7.6 -11.3°
Sets 17:27:03 0° 30° (NNE) 2,629 8.5 -10.9°
